N32AP KTVL-KFHR

Flight info

Callsign N32AP
Flight time 2h 56m
Altitude 26000
Route WNDEL J92 LMT J189 BTG OLM WATTR
Aircraft BE60/L-SDFGRY/C

Departure

Time 2026-04-25 21:35
Airport Lake Tahoe Airport (KTVL)

Arrival

Time 2026-04-26 00:32
Airport Friday Harbor Airport (KFHR)
Time Latitude Longitude Altitude Speed Heading
2026-04-25 21:23 38.89329 -119.99715 6264 ft 0 kts 284°
2026-04-25 21:30 38.89335 -119.99722 6264 ft 5 kts 349°
2026-04-25 21:31 38.89472 -119.99701 6264 ft 15 kts 13°
2026-04-25 21:31 38.89508 -119.99607 6262 ft 16 kts 37°
2026-04-25 21:31 38.89667 -119.99558 6263 ft 31 kts 13°
2026-04-25 21:31 38.89916 -119.99487 6265 ft 41 kts 12°
2026-04-25 21:32 38.90210 -119.99401 6264 ft 45 kts 13°
2026-04-25 21:32 38.90467 -119.99326 6259 ft 32 kts 13°
2026-04-25 21:32 38.90528 -119.99288 6259 ft 0 kts 59°
2026-04-25 21:33 38.90532 -119.99264 6259 ft 7 kts 96°
2026-04-25 21:33 38.90485 -119.99216 6260 ft 11 kts 186°
2026-04-25 21:33 38.90479 -119.99217 6260 ft 0 kts 191°
2026-04-25 21:34 38.90432 -119.99231 6260 ft 32 kts 194°
2026-04-25 21:34 38.90003 -119.99356 6266 ft 90 kts 194°
2026-04-25 21:35 38.89319 -119.99574 6510 ft 107 kts 200°
2026-04-25 21:35 38.88585 -119.99816 6991 ft 107 kts 196°
2026-04-25 21:35 38.87872 -120.00099 7374 ft 107 kts 194°
2026-04-25 21:35 38.87162 -120.00325 7849 ft 103 kts 187°
2026-04-25 21:36 38.86528 -119.99906 8147 ft 124 kts 119°
2026-04-25 21:36 38.86528 -119.98771 8449 ft 140 kts 60°
2026-04-25 21:36 38.87250 -119.97978 8916 ft 138 kts 23°
2026-04-25 21:36 38.88160 -119.97681 9425 ft 134 kts 350°
2026-04-25 21:37 38.89088 -119.97788 9906 ft 133 kts 347°
2026-04-25 21:37 38.89697 -119.97896 10211 ft 133 kts 346°
2026-04-25 21:37 38.90928 -119.98136 10835 ft 134 kts 347°
2026-04-25 21:37 38.91851 -119.98340 11306 ft 135 kts 346°
2026-04-25 21:38 38.92782 -119.98550 11781 ft 137 kts 346°
2026-04-25 21:38 38.93779 -119.98775 12003 ft 161 kts 347°
2026-04-25 21:38 38.94990 -119.99050 12032 ft 191 kts 348°
2026-04-25 21:38 38.96381 -119.99361 12022 ft 213 kts 347°
2026-04-25 21:39 38.97875 -119.99686 11996 ft 221 kts 349°
2026-04-25 21:39 38.99394 -120.00010 11915 ft 226 kts 348°
2026-04-25 21:39 39.00949 -120.00351 11915 ft 227 kts 347°
2026-04-25 21:39 39.02507 -120.00698 11922 ft 227 kts 348°
2026-04-25 21:40 39.04064 -120.01043 11920 ft 226 kts 348°
2026-04-25 21:40 39.05616 -120.01377 11924 ft 226 kts 349°
2026-04-25 21:40 39.07163 -120.01717 11933 ft 226 kts 347°
2026-04-25 21:40 39.08715 -120.02068 11944 ft 226 kts 348°
2026-04-25 21:41 39.10268 -120.02412 11946 ft 226 kts 348°
2026-04-25 21:41 39.11817 -120.02758 11952 ft 226 kts 348°
2026-04-25 21:41 39.13363 -120.03103 11955 ft 225 kts 347°
2026-04-25 21:41 39.14903 -120.03439 11964 ft 224 kts 348°
2026-04-25 21:42 39.16437 -120.03781 11971 ft 223 kts 348°
2026-04-25 21:42 39.17966 -120.04125 11975 ft 223 kts 348°
2026-04-25 21:42 39.19500 -120.04467 11983 ft 223 kts 347°
2026-04-25 21:42 39.21034 -120.04796 11985 ft 223 kts 348°
2026-04-25 21:43 39.22546 -120.05134 11986 ft 224 kts 347°
2026-04-25 21:43 39.24079 -120.05475 11991 ft 224 kts 347°
2026-04-25 21:43 39.25611 -120.05828 12001 ft 224 kts 346°
2026-04-25 21:43 39.27150 -120.06181 11997 ft 225 kts 348°
2026-04-25 21:44 39.28697 -120.06519 12004 ft 226 kts 347°
2026-04-25 21:44 39.30258 -120.06871 12004 ft 228 kts 347°
2026-04-25 21:44 39.33398 -120.07571 12003 ft 231 kts 348°
2026-04-25 21:45 39.34979 -120.07930 12002 ft 231 kts 348°
2026-04-25 21:45 39.36030 -120.08171 12001 ft 232 kts 348°
2026-04-25 21:45 39.38161 -120.08657 11883 ft 232 kts 348°
2026-04-25 21:45 39.39752 -120.09002 11889 ft 232 kts 347°
2026-04-25 21:46 39.41331 -120.09338 11874 ft 232 kts 348°
2026-04-25 21:46 39.42925 -120.09687 11875 ft 233 kts 346°
2026-04-25 21:46 39.44528 -120.10029 11875 ft 233 kts 348°
2026-04-25 21:46 39.46127 -120.10369 11882 ft 233 kts 348°
2026-04-25 21:47 39.47728 -120.10729 11874 ft 234 kts 346°
2026-04-25 21:47 39.49331 -120.11090 11871 ft 234 kts 348°
2026-04-25 21:47 39.50931 -120.11455 11860 ft 233 kts 348°
2026-04-25 21:47 39.52530 -120.11827 11868 ft 233 kts 347°
2026-04-25 21:48 39.54134 -120.12193 11867 ft 234 kts 348°
2026-04-25 21:48 39.55735 -120.12555 11863 ft 234 kts 348°
2026-04-25 21:48 39.57322 -120.12913 11861 ft 234 kts 347°
2026-04-25 21:48 39.58945 -120.13286 11864 ft 235 kts 347°
2026-04-25 21:49 39.60535 -120.13638 11863 ft 235 kts 348°
2026-04-25 21:49 39.62148 -120.13998 11863 ft 235 kts 347°
2026-04-25 21:49 39.63760 -120.14370 11859 ft 236 kts 348°
2026-04-25 21:49 39.65379 -120.14742 11858 ft 236 kts 348°
2026-04-25 21:50 39.66991 -120.15113 11854 ft 236 kts 348°
2026-04-25 21:50 39.68611 -120.15469 11858 ft 236 kts 347°
2026-04-25 21:50 39.70227 -120.15843 11846 ft 236 kts 347°
2026-04-25 21:50 39.71298 -120.16089 11842 ft 235 kts 349°
2026-04-25 21:51 39.73444 -120.16566 11848 ft 234 kts 348°
2026-04-25 21:51 39.75044 -120.16919 11845 ft 233 kts 349°
2026-04-25 21:51 39.76639 -120.17269 11859 ft 232 kts 348°
2026-04-25 21:51 39.78232 -120.17625 11850 ft 231 kts 348°
2026-04-25 21:52 39.79816 -120.17983 11848 ft 231 kts 348°
2026-04-25 21:52 39.81395 -120.18348 11850 ft 230 kts 348°
2026-04-25 21:52 39.82972 -120.18711 11852 ft 230 kts 348°
2026-04-25 21:52 39.84537 -120.19062 11849 ft 230 kts 348°
2026-04-25 21:53 39.86121 -120.19420 11850 ft 231 kts 349°
2026-04-25 21:53 39.87704 -120.19782 11848 ft 231 kts 348°
2026-04-25 21:53 39.89285 -120.20138 11842 ft 230 kts 348°
2026-04-25 21:53 39.90861 -120.20490 11837 ft 229 kts 347°
2026-04-25 21:54 39.92430 -120.20844 11842 ft 229 kts 346°
2026-04-25 21:54 39.94001 -120.21224 11845 ft 229 kts 346°
2026-04-25 21:54 39.95567 -120.21591 11839 ft 229 kts 346°
2026-04-25 21:54 39.97134 -120.21940 11842 ft 229 kts 348°
2026-04-25 21:55 39.98708 -120.22281 11839 ft 229 kts 346°
2026-04-25 21:55 40.00274 -120.22637 11827 ft 228 kts 348°
2026-04-25 21:55 40.01839 -120.22993 11835 ft 228 kts 347°
2026-04-25 21:55 40.03402 -120.23372 11831 ft 229 kts 346°
2026-04-25 21:56 40.04954 -120.23716 11837 ft 230 kts 347°
2026-04-25 21:56 40.06019 -120.23952 11832 ft 230 kts 345°
2026-04-25 21:56 40.08112 -120.24426 11820 ft 229 kts 347°
2026-04-25 21:56 40.09685 -120.24776 11822 ft 229 kts 345°
2026-04-25 21:57 40.11259 -120.25125 11825 ft 229 kts 346°
2026-04-25 21:57 40.12828 -120.25493 11828 ft 229 kts 347°
2026-04-25 21:57 40.14395 -120.25875 11827 ft 229 kts 345°
2026-04-25 21:57 40.15963 -120.26229 11832 ft 229 kts 345°
2026-04-25 21:58 40.17533 -120.26567 11832 ft 228 kts 346°
2026-04-25 21:58 40.19096 -120.26920 11840 ft 228 kts 347°
2026-04-25 21:58 40.20659 -120.27287 11843 ft 227 kts 345°
2026-04-25 21:58 40.22211 -120.27661 11846 ft 227 kts 346°
2026-04-25 21:59 40.23772 -120.28041 11853 ft 227 kts 347°
2026-04-25 21:59 40.25306 -120.28412 11859 ft 227 kts 346°
2026-04-25 21:59 40.26864 -120.28771 11865 ft 228 kts 346°
2026-04-25 22:00 40.29982 -120.29460 11868 ft 227 kts 347°
2026-04-25 22:00 40.31544 -120.29810 11873 ft 226 kts 346°
2026-04-25 22:00 40.33095 -120.30170 11880 ft 227 kts 347°
2026-04-25 22:00 40.34650 -120.30522 11880 ft 227 kts 348°
2026-04-25 22:01 40.36207 -120.30873 11882 ft 227 kts 346°
2026-04-25 22:01 40.37769 -120.31224 11881 ft 227 kts 346°
2026-04-25 22:01 40.39296 -120.31712 11879 ft 224 kts 335°
2026-04-25 22:01 40.40225 -120.32282 11879 ft 221 kts 324°
2026-04-25 22:02 40.41946 -120.33755 11893 ft 221 kts 324°
2026-04-25 22:02 40.43258 -120.34759 11890 ft 221 kts 326°
2026-04-25 22:02 40.44597 -120.35761 11900 ft 222 kts 327°
2026-04-25 22:02 40.45939 -120.36780 11897 ft 223 kts 326°
2026-04-25 22:03 40.47286 -120.37814 11907 ft 224 kts 325°
2026-04-25 22:03 40.48634 -120.38856 11914 ft 225 kts 325°
2026-04-25 22:03 40.49985 -120.39896 11891 ft 225 kts 325°
2026-04-25 22:03 40.51353 -120.40887 11891 ft 224 kts 326°
2026-04-25 22:04 40.52698 -120.41903 11887 ft 222 kts 326°
2026-04-25 22:04 40.54021 -120.42954 11892 ft 222 kts 324°
2026-04-25 22:04 40.55337 -120.44022 11893 ft 222 kts 325°
2026-04-25 22:04 40.56669 -120.45079 11889 ft 224 kts 325°
2026-04-25 22:05 40.58005 -120.46137 11880 ft 225 kts 326°
2026-04-25 22:05 40.59330 -120.47175 11880 ft 224 kts 323°
2026-04-25 22:05 40.60668 -120.48233 11879 ft 225 kts 326°
2026-04-25 22:05 40.62005 -120.49298 11869 ft 225 kts 326°
2026-04-25 22:06 40.63344 -120.50359 11858 ft 224 kts 324°
2026-04-25 22:06 40.64679 -120.51409 11859 ft 223 kts 326°
2026-04-25 22:06 40.66028 -120.52427 11859 ft 224 kts 327°
2026-04-25 22:06 40.67371 -120.53459 11855 ft 223 kts 323°
2026-04-25 22:07 40.68694 -120.54516 11848 ft 222 kts 324°
2026-04-25 22:07 40.69570 -120.55214 11845 ft 220 kts 324°
2026-04-25 22:07 40.71331 -120.56606 11848 ft 220 kts 326°
2026-04-25 22:07 40.72646 -120.57635 11859 ft 220 kts 325°
2026-04-25 22:08 40.73962 -120.58663 11858 ft 220 kts 324°
2026-04-25 22:08 40.75279 -120.59702 11854 ft 221 kts 326°
2026-04-25 22:08 40.76150 -120.60389 11842 ft 220 kts 324°
2026-04-25 22:08 40.77464 -120.61418 11851 ft 220 kts 324°
2026-04-25 22:09 40.78779 -120.62447 11858 ft 220 kts 325°
2026-04-25 22:09 40.80099 -120.63482 11864 ft 221 kts 324°
2026-04-25 22:09 40.81416 -120.64523 11864 ft 222 kts 323°
2026-04-25 22:09 40.83177 -120.65910 11860 ft 223 kts 324°
2026-04-25 22:10 40.84078 -120.66619 11861 ft 223 kts 324°
2026-04-25 22:10 40.85408 -120.67678 11875 ft 222 kts 323°
2026-04-25 22:10 40.86725 -120.68721 11928 ft 220 kts 326°
2026-04-25 22:10 40.88023 -120.69743 11941 ft 220 kts 325°
2026-04-25 22:11 40.89350 -120.70794 11948 ft 219 kts 324°
2026-04-25 22:11 40.90654 -120.71828 11953 ft 218 kts 324°
2026-04-25 22:11 40.91944 -120.72848 11961 ft 218 kts 323°
2026-04-25 22:11 40.93239 -120.73890 11969 ft 218 kts 324°
2026-04-25 22:12 40.94544 -120.74930 11963 ft 219 kts 325°
2026-04-25 22:12 40.95859 -120.75972 11963 ft 221 kts 324°
2026-04-25 22:12 40.97178 -120.77030 11955 ft 221 kts 323°
2026-04-25 22:12 40.98051 -120.77726 11956 ft 222 kts 325°
2026-04-25 22:13 40.99830 -120.79132 11956 ft 222 kts 325°
2026-04-25 22:13 41.01152 -120.80193 11957 ft 222 kts 324°
2026-04-25 22:13 41.02489 -120.81225 11955 ft 223 kts 326°
2026-04-25 22:13 41.03828 -120.82263 11965 ft 222 kts 325°
2026-04-25 22:14 41.05134 -120.83309 11964 ft 222 kts 322°
2026-04-25 22:14 41.06452 -120.84370 11951 ft 221 kts 323°
2026-04-25 22:14 41.07770 -120.85422 11949 ft 220 kts 324°
2026-04-25 22:14 41.09081 -120.86462 11947 ft 219 kts 324°
2026-04-25 22:15 41.10390 -120.87496 11963 ft 219 kts 325°
2026-04-25 22:15 41.11696 -120.88532 11964 ft 219 kts 324°
2026-04-25 22:15 41.13008 -120.89557 11963 ft 219 kts 323°
2026-04-25 22:16 41.15616 -120.91659 11986 ft 220 kts 323°
2026-04-25 22:16 41.16929 -120.92707 11979 ft 220 kts 323°
2026-04-25 22:16 41.18237 -120.93746 11981 ft 219 kts 322°
2026-04-25 22:16 41.19537 -120.94792 11986 ft 219 kts 324°
2026-04-25 22:17 41.20851 -120.95834 11992 ft 219 kts 324°
2026-04-25 22:17 41.22158 -120.96870 11997 ft 220 kts 324°
2026-04-25 22:17 41.23468 -120.97915 11977 ft 219 kts 325°
2026-04-25 22:17 41.24774 -120.98980 11994 ft 220 kts 323°
2026-04-25 22:18 41.26075 -121.00049 11990 ft 220 kts 324°
2026-04-25 22:18 41.27387 -121.01094 11987 ft 220 kts 324°
2026-04-25 22:18 41.28695 -121.02140 11979 ft 218 kts 323°
2026-04-25 22:18 41.29992 -121.03180 11988 ft 216 kts 324°
2026-04-25 22:19 41.31278 -121.04210 11996 ft 217 kts 325°
2026-04-25 22:19 41.32569 -121.05249 12001 ft 217 kts 323°
2026-04-25 22:19 41.33865 -121.06300 12004 ft 219 kts 322°
2026-04-25 22:19 41.35174 -121.07357 11941 ft 222 kts 326°
2026-04-25 22:20 41.36503 -121.08424 11863 ft 224 kts 324°
2026-04-25 22:20 41.37826 -121.09480 11796 ft 224 kts 324°
2026-04-25 22:20 41.39165 -121.10555 11706 ft 225 kts 325°
2026-04-25 22:20 41.40512 -121.11631 11631 ft 226 kts 325°
2026-04-25 22:21 41.41859 -121.12718 11576 ft 225 kts 323°
2026-04-25 22:21 41.43196 -121.13814 11541 ft 226 kts 326°
2026-04-25 22:21 41.44544 -121.14900 11495 ft 226 kts 324°
2026-04-25 22:21 41.45897 -121.15976 11434 ft 226 kts 324°
2026-04-25 22:22 41.47252 -121.17054 11357 ft 226 kts 325°
2026-04-25 22:22 41.48602 -121.18137 11287 ft 226 kts 324°
2026-04-25 22:22 41.49943 -121.19231 11209 ft 226 kts 324°
2026-04-25 22:22 41.51294 -121.20318 11138 ft 226 kts 326°
2026-04-25 22:23 41.52627 -121.21394 11077 ft 227 kts 325°
2026-04-25 22:23 41.53978 -121.22492 11009 ft 227 kts 325°
2026-04-25 22:23 41.55327 -121.23588 10955 ft 227 kts 325°
2026-04-25 22:23 41.56680 -121.24688 10887 ft 227 kts 325°
2026-04-25 22:24 41.58029 -121.25787 10816 ft 227 kts 326°
2026-04-25 22:24 41.59381 -121.26884 10749 ft 227 kts 326°
2026-04-25 22:24 41.60733 -121.27981 10678 ft 227 kts 326°
2026-04-25 22:24 41.62084 -121.29077 10612 ft 227 kts 325°
2026-04-25 22:25 41.63414 -121.30157 10543 ft 227 kts 326°
2026-04-25 22:25 41.64759 -121.31254 10502 ft 226 kts 326°
2026-04-25 22:25 41.66094 -121.32344 10494 ft 223 kts 326°
2026-04-25 22:25 41.67417 -121.33415 10486 ft 221 kts 325°
2026-04-25 22:26 41.68733 -121.34474 10483 ft 220 kts 326°
2026-04-25 22:26 41.70037 -121.35539 10484 ft 219 kts 325°
2026-04-25 22:26 41.71339 -121.36604 10479 ft 219 kts 325°
2026-04-25 22:26 41.72645 -121.37657 10478 ft 219 kts 326°
2026-04-25 22:27 41.73947 -121.38714 10470 ft 218 kts 324°
2026-04-25 22:27 41.75225 -121.39757 10470 ft 218 kts 325°
2026-04-25 22:27 41.76517 -121.40818 10468 ft 218 kts 326°
2026-04-25 22:27 41.77810 -121.41878 10472 ft 218 kts 325°
2026-04-25 22:28 41.79101 -121.42940 10469 ft 218 kts 325°
2026-04-25 22:28 41.80397 -121.43998 10469 ft 218 kts 325°
2026-04-25 22:28 41.81694 -121.45054 10465 ft 218 kts 325°
2026-04-25 22:28 41.82991 -121.46101 10472 ft 218 kts 325°
2026-04-25 22:29 41.84286 -121.47164 10474 ft 218 kts 325°
2026-04-25 22:29 41.85580 -121.48233 10474 ft 219 kts 324°
2026-04-25 22:29 41.86875 -121.49305 10472 ft 218 kts 324°
2026-04-25 22:30 41.89472 -121.51430 10474 ft 218 kts 324°
2026-04-25 22:30 41.90771 -121.52493 10478 ft 218 kts 324°
2026-04-25 22:30 41.92062 -121.53559 10485 ft 218 kts 325°
2026-04-25 22:30 41.92917 -121.54266 10486 ft 218 kts 325°
2026-04-25 22:31 41.94626 -121.55672 10494 ft 217 kts 324°
2026-04-25 22:31 41.95916 -121.56729 10489 ft 217 kts 325°
2026-04-25 22:31 41.97198 -121.57784 10464 ft 215 kts 324°
2026-04-25 22:31 41.98471 -121.58834 10495 ft 214 kts 324°
2026-04-25 22:32 41.99746 -121.59884 10505 ft 215 kts 323°
2026-04-25 22:32 42.01021 -121.60948 10505 ft 216 kts 325°
2026-04-25 22:32 42.02304 -121.62018 10509 ft 217 kts 324°
2026-04-25 22:32 42.03591 -121.63078 10509 ft 217 kts 324°
2026-04-25 22:33 42.04886 -121.64134 10511 ft 217 kts 326°
2026-04-25 22:33 42.06161 -121.65177 10512 ft 217 kts 326°
2026-04-25 22:33 42.07451 -121.66237 10513 ft 217 kts 326°
2026-04-25 22:33 42.08743 -121.67301 10515 ft 217 kts 326°
2026-04-25 22:34 42.10029 -121.68360 10518 ft 217 kts 326°
2026-04-25 22:34 42.11330 -121.69414 10518 ft 217 kts 326°
2026-04-25 22:34 42.12618 -121.70480 10519 ft 217 kts 325°
2026-04-25 22:34 42.13907 -121.71555 10516 ft 218 kts 324°
2026-04-25 22:35 42.15230 -121.72542 10517 ft 219 kts 333°
2026-04-25 22:35 42.16716 -121.73068 10518 ft 223 kts 348°
2026-04-25 22:35 42.18259 -121.73334 10519 ft 223 kts 347°
2026-04-25 22:35 42.19767 -121.73662 10489 ft 222 kts 346°
2026-04-25 22:36 42.21299 -121.74026 10495 ft 223 kts 346°
2026-04-25 22:36 42.22822 -121.74392 10491 ft 223 kts 346°
2026-04-25 22:36 42.24358 -121.74751 10488 ft 223 kts 347°
2026-04-25 22:36 42.25889 -121.75114 10488 ft 224 kts 347°
2026-04-25 22:37 42.27424 -121.75472 10468 ft 224 kts 347°
2026-04-25 22:37 42.28953 -121.75831 10455 ft 223 kts 346°
2026-04-25 22:37 42.30484 -121.76185 10468 ft 223 kts 347°
2026-04-25 22:37 42.32016 -121.76535 10480 ft 224 kts 347°
2026-04-25 22:38 42.33556 -121.76890 10484 ft 226 kts 348°
2026-04-25 22:38 42.35089 -121.77236 10469 ft 226 kts 347°
2026-04-25 22:38 42.36656 -121.77609 10464 ft 225 kts 347°
2026-04-25 22:38 42.38202 -121.77953 10463 ft 225 kts 347°
2026-04-25 22:39 42.39749 -121.78297 10463 ft 224 kts 346°
2026-04-25 22:39 42.41269 -121.78634 10472 ft 225 kts 348°
2026-04-25 22:39 42.42812 -121.78976 10473 ft 224 kts 348°
2026-04-25 22:39 42.44352 -121.79321 10475 ft 224 kts 347°
2026-04-25 22:40 42.45891 -121.79673 10484 ft 225 kts 347°
2026-04-25 22:40 42.47441 -121.80047 10479 ft 226 kts 346°
2026-04-25 22:40 42.48990 -121.80410 10476 ft 226 kts 346°
2026-04-25 22:40 42.50547 -121.80771 10479 ft 227 kts 347°
2026-04-25 22:41 42.52100 -121.81130 10478 ft 227 kts 347°
2026-04-25 22:41 42.53661 -121.81485 10469 ft 226 kts 347°
2026-04-25 22:41 42.55214 -121.81831 10477 ft 226 kts 348°
2026-04-25 22:41 42.56767 -121.82184 10481 ft 226 kts 346°
2026-04-25 22:42 42.58323 -121.82546 10484 ft 226 kts 348°
2026-04-25 22:42 42.59851 -121.82911 10481 ft 226 kts 348°
2026-04-25 22:42 42.61399 -121.83270 10487 ft 225 kts 348°
2026-04-25 22:42 42.62947 -121.83611 10484 ft 225 kts 347°
2026-04-25 22:43 42.64496 -121.83952 10490 ft 225 kts 347°
2026-04-25 22:43 42.66038 -121.84304 10487 ft 225 kts 348°
2026-04-25 22:43 42.67584 -121.84665 10486 ft 225 kts 347°
2026-04-25 22:43 42.69128 -121.85025 10483 ft 224 kts 348°
2026-04-25 22:44 42.70666 -121.85381 10478 ft 224 kts 348°
2026-04-25 22:44 42.72199 -121.85726 10484 ft 223 kts 348°
2026-04-25 22:44 42.73728 -121.86084 10487 ft 223 kts 348°
2026-04-25 22:44 42.75262 -121.86436 10491 ft 224 kts 348°
2026-04-25 22:45 42.76798 -121.86783 10489 ft 224 kts 347°
2026-04-25 22:45 42.78339 -121.87139 10487 ft 224 kts 348°
2026-04-25 22:45 42.79875 -121.87496 10491 ft 224 kts 348°
2026-04-25 22:45 42.81415 -121.87850 10492 ft 224 kts 348°
2026-04-25 22:46 42.82946 -121.88209 10492 ft 224 kts 348°
2026-04-25 22:46 42.84483 -121.88572 10491 ft 224 kts 348°
2026-04-25 22:46 42.86004 -121.88928 10490 ft 224 kts 347°
2026-04-25 22:46 42.87543 -121.89285 10490 ft 224 kts 347°
2026-04-25 22:47 42.89086 -121.89646 10454 ft 226 kts 348°
2026-04-25 22:47 42.90637 -121.90006 10436 ft 226 kts 348°
2026-04-25 22:47 42.92184 -121.90357 10431 ft 225 kts 348°
2026-04-25 22:47 42.93727 -121.90712 10426 ft 224 kts 348°
2026-04-25 22:48 42.95264 -121.91073 10433 ft 224 kts 347°
2026-04-25 22:48 42.96800 -121.91434 10426 ft 224 kts 348°
2026-04-25 22:48 42.98332 -121.91793 10424 ft 223 kts 349°
2026-04-25 22:48 42.99863 -121.92142 10423 ft 222 kts 348°
2026-04-25 22:49 43.01386 -121.92482 10426 ft 222 kts 347°
2026-04-25 22:49 43.02910 -121.92830 10437 ft 222 kts 348°
2026-04-25 22:49 43.04434 -121.93182 10434 ft 222 kts 349°
2026-04-25 22:49 43.05961 -121.93538 10432 ft 223 kts 348°
2026-04-25 22:50 43.07490 -121.93896 10429 ft 223 kts 349°
2026-04-25 22:50 43.09017 -121.94258 10430 ft 223 kts 349°
2026-04-25 22:50 43.10528 -121.94620 10434 ft 223 kts 348°
2026-04-25 22:50 43.12052 -121.94976 10434 ft 223 kts 348°
2026-04-25 22:51 43.13579 -121.95326 10430 ft 222 kts 349°
2026-04-25 22:51 43.15104 -121.95684 10429 ft 222 kts 349°
2026-04-25 22:51 43.16624 -121.96037 10432 ft 221 kts 349°
2026-04-25 22:51 43.18147 -121.96390 10434 ft 222 kts 349°
2026-04-25 22:52 43.19671 -121.96754 10437 ft 222 kts 348°
2026-04-25 22:52 43.21173 -121.97116 10436 ft 222 kts 348°
2026-04-25 22:52 43.22696 -121.97478 10438 ft 222 kts 349°
2026-04-25 22:52 43.23723 -121.97720 10434 ft 222 kts 348°
2026-04-25 22:53 43.25742 -121.98197 10432 ft 222 kts 349°
2026-04-25 22:53 43.27264 -121.98562 10446 ft 222 kts 348°
2026-04-25 22:53 43.28790 -121.98919 10436 ft 223 kts 349°
2026-04-25 22:53 43.30315 -121.99270 10437 ft 223 kts 348°
2026-04-25 22:54 43.31845 -121.99643 10441 ft 223 kts 349°
2026-04-25 22:54 43.33376 -121.99996 10424 ft 222 kts 349°
2026-04-25 22:54 43.34901 -122.00354 10441 ft 222 kts 349°
2026-04-25 22:54 43.36422 -122.00712 10446 ft 222 kts 349°
2026-04-25 22:55 43.37945 -122.01066 10446 ft 222 kts 349°
2026-04-25 22:55 43.38953 -122.01303 10443 ft 222 kts 349°
2026-04-25 22:55 43.40477 -122.01662 10445 ft 223 kts 349°
2026-04-25 22:55 43.41996 -122.02017 10448 ft 222 kts 349°
2026-04-25 22:56 43.43533 -122.02376 10449 ft 223 kts 349°
2026-04-25 22:56 43.45062 -122.02730 10452 ft 223 kts 350°
2026-04-25 22:56 43.46597 -122.03092 10449 ft 224 kts 350°
2026-04-25 22:56 43.48129 -122.03460 10443 ft 223 kts 349°
2026-04-25 22:57 43.49660 -122.03825 10442 ft 223 kts 350°
2026-04-25 22:57 43.51184 -122.04187 10450 ft 223 kts 349°
2026-04-25 22:57 43.52716 -122.04551 10453 ft 223 kts 349°
2026-04-25 22:57 43.54233 -122.04910 10449 ft 224 kts 349°
2026-04-25 22:58 43.55766 -122.05275 10446 ft 223 kts 350°
2026-04-25 22:58 43.57295 -122.05637 10452 ft 224 kts 349°
2026-04-25 22:58 43.58833 -122.06003 10454 ft 224 kts 350°
2026-04-25 22:58 43.60367 -122.06370 10453 ft 224 kts 350°
2026-04-25 22:59 43.61902 -122.06734 10456 ft 224 kts 349°
2026-04-25 22:59 43.63436 -122.07094 10449 ft 223 kts 350°
2026-04-25 22:59 43.64967 -122.07455 10452 ft 223 kts 349°
2026-04-25 22:59 43.66498 -122.07818 10459 ft 223 kts 349°
2026-04-25 23:00 43.68028 -122.08179 10465 ft 223 kts 350°
2026-04-25 23:00 43.69554 -122.08537 10466 ft 223 kts 350°
2026-04-25 23:00 43.71086 -122.08917 10462 ft 223 kts 350°
2026-04-25 23:00 43.72620 -122.09288 10461 ft 223 kts 351°
2026-04-25 23:01 43.74148 -122.09651 10463 ft 223 kts 350°
2026-04-25 23:01 43.75678 -122.10015 10466 ft 223 kts 350°
2026-04-25 23:01 43.77191 -122.10372 10463 ft 223 kts 351°
2026-04-25 23:01 43.78723 -122.10734 10468 ft 224 kts 351°
2026-04-25 23:02 43.80256 -122.11100 10466 ft 223 kts 350°
2026-04-25 23:02 43.81788 -122.11469 10464 ft 223 kts 351°
2026-04-25 23:02 43.83319 -122.11834 10470 ft 223 kts 350°
2026-04-25 23:02 43.84857 -122.12202 10468 ft 224 kts 350°
2026-04-25 23:03 43.86392 -122.12568 10465 ft 224 kts 350°
2026-04-25 23:03 43.87927 -122.12941 10464 ft 224 kts 350°
2026-04-25 23:03 43.89464 -122.13308 10458 ft 224 kts 350°
2026-04-25 23:03 43.90999 -122.13672 10469 ft 224 kts 350°
2026-04-25 23:04 43.92539 -122.14042 10472 ft 225 kts 350°
2026-04-25 23:04 43.94083 -122.14417 10469 ft 225 kts 350°
2026-04-25 23:04 43.95629 -122.14791 10475 ft 225 kts 351°
2026-04-25 23:04 43.97178 -122.15161 10475 ft 226 kts 351°
2026-04-25 23:05 43.98730 -122.15534 10471 ft 226 kts 350°
2026-04-25 23:05 44.00275 -122.15909 10474 ft 226 kts 351°
2026-04-25 23:05 44.01828 -122.16280 10472 ft 226 kts 351°
2026-04-25 23:05 44.03376 -122.16651 10472 ft 226 kts 350°
2026-04-25 23:06 44.04906 -122.17020 10474 ft 225 kts 351°
2026-04-25 23:06 44.06455 -122.17394 10475 ft 226 kts 350°
2026-04-25 23:06 44.08001 -122.17769 10477 ft 226 kts 350°
2026-04-25 23:06 44.09549 -122.18141 10463 ft 226 kts 350°
2026-04-25 23:07 44.11095 -122.18514 10478 ft 226 kts 350°
2026-04-25 23:07 44.12646 -122.18890 10474 ft 226 kts 350°
2026-04-25 23:07 44.14174 -122.19261 10481 ft 225 kts 350°
2026-04-25 23:07 44.15721 -122.19636 10479 ft 226 kts 350°
2026-04-25 23:08 44.17271 -122.20011 10480 ft 226 kts 351°
2026-04-25 23:08 44.18821 -122.20386 10482 ft 226 kts 350°
2026-04-25 23:08 44.20368 -122.20761 10483 ft 226 kts 350°
2026-04-25 23:08 44.21913 -122.21137 10485 ft 225 kts 350°
2026-04-25 23:09 44.23459 -122.21513 10486 ft 226 kts 350°
2026-04-25 23:09 44.25005 -122.21886 10485 ft 225 kts 350°
2026-04-25 23:09 44.26551 -122.22260 10483 ft 226 kts 350°
2026-04-25 23:09 44.28097 -122.22637 10485 ft 225 kts 350°
2026-04-25 23:10 44.29643 -122.23011 10492 ft 225 kts 350°
2026-04-25 23:10 44.31188 -122.23383 10498 ft 225 kts 351°
2026-04-25 23:10 44.32733 -122.23752 10499 ft 225 kts 351°
2026-04-25 23:10 44.34278 -122.24126 10496 ft 226 kts 351°
2026-04-25 23:11 44.35823 -122.24501 10492 ft 225 kts 351°
2026-04-25 23:11 44.37366 -122.24889 10492 ft 225 kts 351°
2026-04-25 23:11 44.38892 -122.25273 10492 ft 225 kts 350°
2026-04-25 23:11 44.40438 -122.25651 10480 ft 225 kts 351°
2026-04-25 23:12 44.41985 -122.26023 10490 ft 225 kts 351°
2026-04-25 23:12 44.43530 -122.26399 10486 ft 225 kts 351°
2026-04-25 23:12 44.45062 -122.26770 10486 ft 224 kts 351°
2026-04-25 23:12 44.46598 -122.27149 10490 ft 223 kts 351°
2026-04-25 23:13 44.48132 -122.27507 10493 ft 223 kts 351°
2026-04-25 23:13 44.49660 -122.27897 10495 ft 224 kts 350°
2026-04-25 23:13 44.51197 -122.28287 10490 ft 224 kts 351°
2026-04-25 23:13 44.52733 -122.28654 10487 ft 224 kts 351°
2026-04-25 23:14 44.54270 -122.29032 10514 ft 225 kts 351°
2026-04-25 23:14 44.55818 -122.29419 10501 ft 226 kts 351°
2026-04-25 23:14 44.57369 -122.29800 10492 ft 226 kts 351°
2026-04-25 23:14 44.58920 -122.30176 10481 ft 226 kts 351°
2026-04-25 23:15 44.60465 -122.30548 10485 ft 225 kts 351°
2026-04-25 23:15 44.62012 -122.30930 10488 ft 225 kts 351°
2026-04-25 23:15 44.63551 -122.31311 10491 ft 224 kts 351°
2026-04-25 23:15 44.65088 -122.31686 10495 ft 224 kts 352°
2026-04-25 23:16 44.66603 -122.32054 10496 ft 224 kts 351°
2026-04-25 23:16 44.68141 -122.32434 10495 ft 224 kts 351°
2026-04-25 23:16 44.69674 -122.32812 10482 ft 223 kts 351°
2026-04-25 23:16 44.71207 -122.33185 10495 ft 223 kts 351°
2026-04-25 23:17 44.72737 -122.33580 10512 ft 224 kts 352°
2026-04-25 23:17 44.74268 -122.33987 10505 ft 224 kts 350°
2026-04-25 23:17 44.75807 -122.34371 10494 ft 224 kts 351°
2026-04-25 23:17 44.77339 -122.34732 10493 ft 223 kts 351°
2026-04-25 23:18 44.78866 -122.35104 10494 ft 222 kts 351°
2026-04-25 23:18 44.80389 -122.35480 10505 ft 223 kts 351°
2026-04-25 23:18 44.81901 -122.35845 10500 ft 223 kts 352°
2026-04-25 23:18 44.83429 -122.36223 10505 ft 223 kts 351°
2026-04-25 23:19 44.84954 -122.36600 10501 ft 222 kts 351°
2026-04-25 23:19 44.86476 -122.36977 10499 ft 222 kts 351°
2026-04-25 23:19 44.87998 -122.37358 10517 ft 222 kts 351°
2026-04-25 23:19 44.89525 -122.37741 10499 ft 223 kts 351°
2026-04-25 23:20 44.91046 -122.38119 10493 ft 222 kts 351°
2026-04-25 23:20 44.92569 -122.38493 10498 ft 222 kts 351°
2026-04-25 23:20 44.94101 -122.38865 10507 ft 223 kts 352°
2026-04-25 23:20 44.95635 -122.39234 10508 ft 224 kts 353°
2026-04-25 23:21 44.97172 -122.39607 10507 ft 224 kts 352°
2026-04-25 23:21 44.98707 -122.39983 10505 ft 224 kts 352°
2026-04-25 23:21 45.00242 -122.40367 10496 ft 224 kts 351°
2026-04-25 23:21 45.01778 -122.40757 10503 ft 224 kts 352°
2026-04-25 23:22 45.03311 -122.41147 10505 ft 224 kts 352°
2026-04-25 23:22 45.04841 -122.41549 10518 ft 223 kts 352°
2026-04-25 23:22 45.06371 -122.41960 10513 ft 224 kts 349°
2026-04-25 23:23 45.09089 -122.44050 10512 ft 230 kts 316°
2026-04-25 23:23 45.10035 -122.45888 10509 ft 233 kts 300°
2026-04-25 23:23 45.10633 -122.48030 10505 ft 234 kts 295°
2026-04-25 23:23 45.11281 -122.50144 10500 ft 233 kts 295°
2026-04-25 23:24 45.11912 -122.52257 10507 ft 232 kts 296°
2026-04-25 23:24 45.12554 -122.54355 10507 ft 232 kts 296°
2026-04-25 23:24 45.13192 -122.56458 10513 ft 232 kts 296°
2026-04-25 23:24 45.13850 -122.58554 10507 ft 232 kts 295°
2026-04-25 23:25 45.14470 -122.60662 10507 ft 232 kts 295°
2026-04-25 23:25 45.15093 -122.62771 10510 ft 232 kts 294°
2026-04-25 23:25 45.15717 -122.64881 10509 ft 232 kts 294°
2026-04-25 23:25 45.16334 -122.66999 10507 ft 232 kts 294°
2026-04-25 23:26 45.16934 -122.69124 10506 ft 232 kts 294°
2026-04-25 23:26 45.17564 -122.71196 10503 ft 231 kts 297°
2026-04-25 23:26 45.18214 -122.73282 10509 ft 232 kts 295°
2026-04-25 23:26 45.18818 -122.75402 10508 ft 232 kts 295°
2026-04-25 23:27 45.19430 -122.77521 10508 ft 232 kts 295°
2026-04-25 23:27 45.20045 -122.79645 10503 ft 232 kts 295°
2026-04-25 23:27 45.20688 -122.81742 10514 ft 232 kts 294°
2026-04-25 23:27 45.21287 -122.83871 10505 ft 232 kts 296°
2026-04-25 23:28 45.21937 -122.85961 10511 ft 232 kts 295°
2026-04-25 23:28 45.22558 -122.88068 10510 ft 231 kts 297°
2026-04-25 23:28 45.23184 -122.90159 10507 ft 230 kts 296°
2026-04-25 23:28 45.23783 -122.92255 10511 ft 229 kts 296°
2026-04-25 23:29 45.24379 -122.94346 10507 ft 228 kts 295°
2026-04-25 23:29 45.24975 -122.96433 10508 ft 228 kts 296°
2026-04-25 23:29 45.25564 -122.98488 10509 ft 228 kts 296°
2026-04-25 23:29 45.26166 -123.00576 10506 ft 227 kts 296°
2026-04-25 23:30 45.26766 -123.02649 10503 ft 227 kts 295°
2026-04-25 23:30 45.27399 -123.04687 10503 ft 224 kts 301°
2026-04-25 23:30 45.28356 -123.06387 10505 ft 219 kts 324°
2026-04-25 23:30 45.29686 -123.07367 10508 ft 215 kts 346°
2026-04-25 23:31 45.31173 -123.07537 10520 ft 215 kts
2026-04-25 23:31 45.32667 -123.07379 10515 ft 216 kts
2026-04-25 23:31 45.34170 -123.07217 10500 ft 216 kts
2026-04-25 23:31 45.35670 -123.07050 10511 ft 216 kts
2026-04-25 23:32 45.37170 -123.06880 10511 ft 216 kts
2026-04-25 23:32 45.38656 -123.06715 10509 ft 217 kts
2026-04-25 23:32 45.40158 -123.06549 10509 ft 217 kts
2026-04-25 23:32 45.41664 -123.06379 10508 ft 217 kts
2026-04-25 23:33 45.43168 -123.06214 10511 ft 217 kts
2026-04-25 23:33 45.44677 -123.06051 10502 ft 217 kts
2026-04-25 23:33 45.46181 -123.05890 10504 ft 216 kts
2026-04-25 23:33 45.47684 -123.05731 10505 ft 217 kts
2026-04-25 23:34 45.49186 -123.05571 10505 ft 216 kts
2026-04-25 23:34 45.50688 -123.05412 10500 ft 216 kts
2026-04-25 23:34 45.52186 -123.05252 10506 ft 216 kts
2026-04-25 23:34 45.53684 -123.05092 10504 ft 216 kts
2026-04-25 23:35 45.55181 -123.04932 10504 ft 216 kts
2026-04-25 23:35 45.56678 -123.04771 10508 ft 216 kts
2026-04-25 23:35 45.58176 -123.04609 10503 ft 216 kts
2026-04-25 23:35 45.59657 -123.04449 10506 ft 216 kts
2026-04-25 23:36 45.61155 -123.04289 10510 ft 216 kts
2026-04-25 23:36 45.62149 -123.04181 10506 ft 216 kts
2026-04-25 23:36 45.64158 -123.03966 10510 ft 216 kts
2026-04-25 23:36 45.65662 -123.03808 10514 ft 217 kts
2026-04-25 23:37 45.67166 -123.03647 10509 ft 217 kts
2026-04-25 23:37 45.68671 -123.03484 10508 ft 217 kts
2026-04-25 23:37 45.70178 -123.03320 10507 ft 217 kts
2026-04-25 23:37 45.71663 -123.03159 10500 ft 216 kts
2026-04-25 23:38 45.73165 -123.02996 10498 ft 216 kts
2026-04-25 23:38 45.74667 -123.02833 10507 ft 216 kts
2026-04-25 23:38 45.76165 -123.02669 10508 ft 216 kts
2026-04-25 23:38 45.77667 -123.02518 10504 ft 216 kts
2026-04-25 23:39 45.79168 -123.02367 10511 ft 216 kts
2026-04-25 23:39 45.80673 -123.02217 10512 ft 217 kts
2026-04-25 23:39 45.82157 -123.02066 10508 ft 217 kts
2026-04-25 23:39 45.83680 -123.01911 10495 ft 216 kts
2026-04-25 23:40 45.85160 -123.01762 10508 ft 216 kts
2026-04-25 23:40 45.86660 -123.01609 10499 ft 216 kts
2026-04-25 23:40 45.88165 -123.01455 10502 ft 216 kts
2026-04-25 23:40 45.89666 -123.01303 10503 ft 216 kts
2026-04-25 23:41 45.90661 -123.01203 10464 ft 218 kts
2026-04-25 23:41 45.92693 -123.00994 10386 ft 220 kts
2026-04-25 23:41 45.93705 -123.00890 10345 ft 220 kts
2026-04-25 23:41 45.95736 -123.00681 10294 ft 221 kts
2026-04-25 23:42 45.97271 -123.00521 10257 ft 221 kts
2026-04-25 23:42 45.98289 -123.00417 10227 ft 221 kts
2026-04-25 23:42 45.99831 -123.00259 10179 ft 221 kts
2026-04-25 23:42 46.01368 -123.00104 10126 ft 221 kts
2026-04-25 23:43 46.03403 -122.99899 10074 ft 219 kts
2026-04-25 23:43 46.04419 -122.99796 10033 ft 215 kts
2026-04-25 23:43 46.05895 -122.99646 9960 ft 210 kts
2026-04-25 23:43 46.07346 -122.99495 9882 ft 208 kts
2026-04-25 23:44 46.08788 -122.99348 9812 ft 206 kts
2026-04-25 23:44 46.10217 -122.99204 9730 ft 205 kts
2026-04-25 23:44 46.11636 -122.99061 9646 ft 204 kts
2026-04-25 23:44 46.13050 -122.98918 9558 ft 204 kts
2026-04-25 23:45 46.14463 -122.98774 9491 ft 203 kts
2026-04-25 23:45 46.15869 -122.98627 9414 ft 202 kts
2026-04-25 23:45 46.17274 -122.98479 9341 ft 202 kts
2026-04-25 23:45 46.18676 -122.98334 9264 ft 202 kts
2026-04-25 23:46 46.20064 -122.98197 9177 ft 202 kts
2026-04-25 23:46 46.21461 -122.98059 9092 ft 201 kts
2026-04-25 23:46 46.22858 -122.97918 8991 ft 201 kts
2026-04-25 23:46 46.24252 -122.97767 8923 ft 200 kts
2026-04-25 23:47 46.25642 -122.97623 8854 ft 200 kts
2026-04-25 23:47 46.27034 -122.97479 8823 ft 200 kts
2026-04-25 23:47 46.28432 -122.97332 8825 ft 203 kts
2026-04-25 23:47 46.29849 -122.97186 8836 ft 205 kts
2026-04-25 23:48 46.31277 -122.97040 8836 ft 206 kts
2026-04-25 23:48 46.32709 -122.96887 8838 ft 206 kts
2026-04-25 23:48 46.34134 -122.96741 8845 ft 205 kts
2026-04-25 23:48 46.35547 -122.96599 8842 ft 206 kts
2026-04-25 23:49 46.36980 -122.96449 8847 ft 207 kts
2026-04-25 23:49 46.38425 -122.96296 8856 ft 209 kts
2026-04-25 23:49 46.39876 -122.96147 8852 ft 209 kts
2026-04-25 23:49 46.41333 -122.96001 8857 ft 210 kts
2026-04-25 23:50 46.42793 -122.95851 8860 ft 210 kts
2026-04-25 23:50 46.44253 -122.95697 8860 ft 211 kts
2026-04-25 23:50 46.45720 -122.95544 8866 ft 211 kts
2026-04-25 23:50 46.47185 -122.95386 8873 ft 211 kts
2026-04-25 23:51 46.48653 -122.95202 8859 ft 211 kts
2026-04-25 23:51 46.50116 -122.95059 8859 ft 211 kts
2026-04-25 23:51 46.51585 -122.94930 8865 ft 211 kts
2026-04-25 23:51 46.53052 -122.94791 8866 ft 211 kts
2026-04-25 23:52 46.54502 -122.94636 8873 ft 212 kts
2026-04-25 23:52 46.55971 -122.94477 8860 ft 212 kts
2026-04-25 23:52 46.57440 -122.94324 8855 ft 211 kts
2026-04-25 23:52 46.58905 -122.94172 8864 ft 210 kts
2026-04-25 23:53 46.60365 -122.94023 8865 ft 211 kts
2026-04-25 23:53 46.61835 -122.93870 8867 ft 212 kts
2026-04-25 23:53 46.63313 -122.93716 8867 ft 214 kts
2026-04-25 23:53 46.64796 -122.93564 8876 ft 214 kts
2026-04-25 23:54 46.66278 -122.93406 8866 ft 213 kts
2026-04-25 23:54 46.67752 -122.93248 8859 ft 212 kts
2026-04-25 23:54 46.69219 -122.93093 8860 ft 210 kts
2026-04-25 23:54 46.70681 -122.92942 8866 ft 210 kts
2026-04-25 23:55 46.72140 -122.92787 8867 ft 210 kts
2026-04-25 23:55 46.73599 -122.92634 8866 ft 210 kts
2026-04-25 23:55 46.75040 -122.92483 8869 ft 210 kts
2026-04-25 23:55 46.76503 -122.92330 8862 ft 211 kts
2026-04-25 23:56 46.77964 -122.92177 8867 ft 211 kts
2026-04-25 23:56 46.79427 -122.92045 8864 ft 210 kts
2026-04-25 23:56 46.80885 -122.91889 8865 ft 210 kts
2026-04-25 23:56 46.82345 -122.91719 8878 ft 210 kts
2026-04-25 23:57 46.83803 -122.91561 8873 ft 210 kts
2026-04-25 23:57 46.85256 -122.91408 8868 ft 210 kts
2026-04-25 23:57 46.86712 -122.91256 8867 ft 210 kts
2026-04-25 23:57 46.88173 -122.91101 8873 ft 211 kts
2026-04-25 23:58 46.89645 -122.90944 8872 ft 212 kts
2026-04-25 23:58 46.91118 -122.90790 8874 ft 212 kts
2026-04-25 23:58 46.92591 -122.90637 8872 ft 212 kts
2026-04-25 23:58 46.94065 -122.90483 8876 ft 213 kts
2026-04-25 23:59 46.95541 -122.90332 8878 ft 213 kts
2026-04-25 23:59 46.97000 -122.90512 8878 ft 213 kts 346°
2026-04-25 23:59 46.98346 -122.91403 8879 ft 215 kts 325°
2026-04-25 23:59 46.99483 -122.92787 8876 ft 215 kts 323°
2026-04-26 00:00 47.00712 -122.94094 8879 ft 215 kts 327°
2026-04-26 00:00 47.01956 -122.95315 8873 ft 215 kts 328°
2026-04-26 00:00 47.03201 -122.96532 8868 ft 215 kts 327°
2026-04-26 00:00 47.04443 -122.97770 8874 ft 215 kts 327°
2026-04-26 00:01 47.05673 -122.99017 8879 ft 215 kts 327°
2026-04-26 00:01 47.06902 -123.00276 8875 ft 215 kts 326°
2026-04-26 00:01 47.08123 -123.01552 8876 ft 216 kts 324°
2026-04-26 00:01 47.09333 -123.02854 8879 ft 215 kts 326°
2026-04-26 00:02 47.10537 -123.04099 8869 ft 214 kts 326°
2026-04-26 00:02 47.11755 -123.05349 8847 ft 213 kts 326°
2026-04-26 00:02 47.12982 -123.06614 8848 ft 212 kts 326°
2026-04-26 00:02 47.14175 -123.07844 8846 ft 212 kts 326°
2026-04-26 00:03 47.15375 -123.09097 8846 ft 212 kts 326°
2026-04-26 00:03 47.16574 -123.10352 8846 ft 212 kts 326°
2026-04-26 00:03 47.17776 -123.11604 8847 ft 212 kts 326°
2026-04-26 00:03 47.18977 -123.12858 8847 ft 212 kts 326°
2026-04-26 00:04 47.20180 -123.14115 8848 ft 212 kts 326°
2026-04-26 00:04 47.21384 -123.15375 8843 ft 212 kts 326°
2026-04-26 00:04 47.22586 -123.16634 8843 ft 212 kts 326°
2026-04-26 00:04 47.23788 -123.17895 8845 ft 212 kts 326°
2026-04-26 00:05 47.24985 -123.19151 8846 ft 211 kts 326°
2026-04-26 00:05 47.26185 -123.20412 8849 ft 213 kts 326°
2026-04-26 00:05 47.27394 -123.21682 8844 ft 213 kts 326°
2026-04-26 00:05 47.28603 -123.22952 8842 ft 213 kts 326°
2026-04-26 00:06 47.29812 -123.24221 8843 ft 213 kts 326°
2026-04-26 00:06 47.31004 -123.25474 8850 ft 213 kts 326°
2026-04-26 00:06 47.32214 -123.26747 8849 ft 214 kts 326°
2026-04-26 00:06 47.33425 -123.28026 8848 ft 214 kts 326°
2026-04-26 00:07 47.34637 -123.29301 8849 ft 214 kts 326°
2026-04-26 00:07 47.35851 -123.30580 8846 ft 213 kts 326°
2026-04-26 00:07 47.37059 -123.31855 8849 ft 213 kts 326°
2026-04-26 00:07 47.38267 -123.33134 8852 ft 213 kts 326°
2026-04-26 00:08 47.39468 -123.34411 8853 ft 213 kts 326°
2026-04-26 00:08 47.40667 -123.35689 8849 ft 212 kts 326°
2026-04-26 00:08 47.41866 -123.36953 8861 ft 212 kts 326°
2026-04-26 00:08 47.43074 -123.38229 8868 ft 213 kts 326°
2026-04-26 00:09 47.44284 -123.39501 8856 ft 214 kts 326°
2026-04-26 00:09 47.45500 -123.40783 8866 ft 216 kts 327°
2026-04-26 00:09 47.46727 -123.42082 8865 ft 218 kts 326°
2026-04-26 00:09 47.47962 -123.43388 8870 ft 219 kts 326°
2026-04-26 00:10 47.49198 -123.44697 8866 ft 218 kts 326°
2026-04-26 00:10 47.50466 -123.45935 8869 ft 217 kts 336°
2026-04-26 00:10 47.51922 -123.46348 8866 ft 214 kts
2026-04-26 00:10 47.53320 -123.45663 8881 ft 214 kts 28°
2026-04-26 00:11 47.54615 -123.44555 8872 ft 215 kts 28°
2026-04-26 00:11 47.55902 -123.43478 8876 ft 216 kts 29°
2026-04-26 00:11 47.57213 -123.42377 8877 ft 217 kts 28°
2026-04-26 00:11 47.58521 -123.41267 8886 ft 217 kts 30°
2026-04-26 00:12 47.59829 -123.40146 8883 ft 217 kts 29°
2026-04-26 00:12 47.61139 -123.39037 8884 ft 217 kts 29°
2026-04-26 00:12 47.62454 -123.37930 8885 ft 217 kts 28°
2026-04-26 00:12 47.63764 -123.36808 8885 ft 218 kts 29°
2026-04-26 00:13 47.65085 -123.35699 8871 ft 217 kts 28°
2026-04-26 00:13 47.66400 -123.34625 8842 ft 214 kts 28°
2026-04-26 00:13 47.67698 -123.33543 8887 ft 214 kts 28°
2026-04-26 00:13 47.68992 -123.32436 8891 ft 216 kts 29°
2026-04-26 00:14 47.70309 -123.31370 8896 ft 215 kts 26°
2026-04-26 00:14 47.71619 -123.30293 8885 ft 215 kts 28°
2026-04-26 00:14 47.72911 -123.29266 8831 ft 210 kts 26°
2026-04-26 00:14 47.74171 -123.28228 8862 ft 206 kts 30°
2026-04-26 00:15 47.75408 -123.27126 8884 ft 207 kts 30°
2026-04-26 00:15 47.76645 -123.26033 8886 ft 207 kts 30°
2026-04-26 00:15 47.77882 -123.24926 8888 ft 207 kts 30°
2026-04-26 00:15 47.79119 -123.23847 8894 ft 206 kts 28°
2026-04-26 00:16 47.80377 -123.22780 8903 ft 208 kts 28°
2026-04-26 00:16 47.81622 -123.21682 8900 ft 208 kts 30°
2026-04-26 00:16 47.82870 -123.20633 8906 ft 209 kts 27°
2026-04-26 00:16 47.84151 -123.19599 8889 ft 209 kts 28°
2026-04-26 00:17 47.85415 -123.18547 8904 ft 208 kts 28°
2026-04-26 00:17 47.86675 -123.17473 8915 ft 209 kts 29°
2026-04-26 00:17 47.87937 -123.16401 8880 ft 207 kts 30°
2026-04-26 00:17 47.89168 -123.15298 8891 ft 205 kts 30°
2026-04-26 00:18 47.90395 -123.14238 8896 ft 203 kts 28°
2026-04-26 00:18 47.91642 -123.13245 8905 ft 204 kts 27°
2026-04-26 00:18 47.92882 -123.12211 8791 ft 203 kts 29°
2026-04-26 00:18 47.94107 -123.11182 8674 ft 200 kts 30°
2026-04-26 00:19 47.95297 -123.10126 8559 ft 198 kts 30°
2026-04-26 00:19 47.96482 -123.09084 8429 ft 197 kts 30°
2026-04-26 00:19 47.97666 -123.08054 8285 ft 197 kts 30°
2026-04-26 00:19 47.98849 -123.07033 8164 ft 196 kts 30°
2026-04-26 00:20 48.00031 -123.06016 8025 ft 197 kts 30°
2026-04-26 00:20 48.01223 -123.04993 7894 ft 198 kts 30°
2026-04-26 00:20 48.02427 -123.03969 7744 ft 200 kts 29°
2026-04-26 00:20 48.03637 -123.02938 7635 ft 200 kts 29°
2026-04-26 00:21 48.04844 -123.01901 7509 ft 200 kts 30°
2026-04-26 00:21 48.06053 -123.00863 7393 ft 200 kts 30°
2026-04-26 00:21 48.07246 -122.99840 7269 ft 200 kts 30°
2026-04-26 00:21 48.08461 -122.98818 7151 ft 200 kts 29°
2026-04-26 00:22 48.09667 -122.97787 7032 ft 200 kts 30°
2026-04-26 00:22 48.10869 -122.96740 6906 ft 200 kts 30°
2026-04-26 00:22 48.12075 -122.95694 6711 ft 201 kts 30°
2026-04-26 00:22 48.13321 -122.94736 6540 ft 202 kts 20°
2026-04-26 00:23 48.14718 -122.94465 6378 ft 206 kts 357°
2026-04-26 00:23 48.16097 -122.95047 6114 ft 206 kts 344°
2026-04-26 00:23 48.17472 -122.95616 5846 ft 204 kts 349°
2026-04-26 00:23 48.18835 -122.96076 5589 ft 203 kts 350°
2026-04-26 00:24 48.20209 -122.96550 5331 ft 202 kts 349°
2026-04-26 00:24 48.21575 -122.97052 5069 ft 202 kts 348°
2026-04-26 00:24 48.22933 -122.97567 4830 ft 201 kts 348°
2026-04-26 00:24 48.24288 -122.98088 4564 ft 200 kts 348°
2026-04-26 00:25 48.25634 -122.98606 4292 ft 199 kts 348°
2026-04-26 00:25 48.26973 -122.99123 4030 ft 198 kts 348°
2026-04-26 00:25 48.28304 -122.99638 3779 ft 197 kts 347°
2026-04-26 00:25 48.29633 -123.00152 3529 ft 196 kts 347°
2026-04-26 00:26 48.30954 -123.00655 3275 ft 195 kts 349°
2026-04-26 00:26 48.32297 -123.00896 3032 ft 194 kts 359°
2026-04-26 00:26 48.33196 -123.00946 2855 ft 195 kts 359°
2026-04-26 00:26 48.34550 -123.01060 2598 ft 194 kts 357°
2026-04-26 00:27 48.35902 -123.01176 2344 ft 194 kts 357°
2026-04-26 00:27 48.37247 -123.01286 2086 ft 193 kts 356°
2026-04-26 00:27 48.38560 -123.01388 2009 ft 180 kts 356°
2026-04-26 00:27 48.40113 -123.01501 1985 ft 160 kts 356°
2026-04-26 00:28 48.41203 -123.01585 1971 ft 154 kts 355°
2026-04-26 00:28 48.41918 -123.01646 1982 ft 151 kts 355°
2026-04-26 00:28 48.42964 -123.01735 1938 ft 151 kts 355°
2026-04-26 00:28 48.44011 -123.01813 1889 ft 149 kts 355°
2026-04-26 00:29 48.45040 -123.01884 1753 ft 148 kts 355°
2026-04-26 00:29 48.46013 -123.01955 1587 ft 129 kts 354°
2026-04-26 00:29 48.46809 -123.02017 1431 ft 104 kts 353°
2026-04-26 00:29 48.47501 -123.02075 1174 ft 97 kts 353°
2026-04-26 00:30 48.48144 -123.02078 945 ft 90 kts 354°
2026-04-26 00:30 48.48751 -123.02160 760 ft 85 kts 355°
2026-04-26 00:30 48.49353 -123.02200 644 ft 88 kts 355°
2026-04-26 00:30 48.49968 -123.02280 582 ft 91 kts 350°
2026-04-26 00:31 48.50611 -123.02323 442 ft 97 kts 356°
2026-04-26 00:31 48.51281 -123.02365 228 ft 93 kts 356°
2026-04-26 00:31 48.51868 -123.02419 90 ft 71 kts 358°
2026-04-26 00:31 48.52285 -123.02444 107 ft 51 kts 357°
2026-04-26 00:32 48.52509 -123.02461 114 ft 29 kts 356°
2026-04-26 00:32 48.52652 -123.02497 113 ft 11 kts 310°
2026-04-26 00:32 48.52657 -123.02522 112 ft 0 kts 267°
2026-04-26 00:33 48.52657 -123.02530 113 ft 0 kts 267°
2026-04-26 00:34 48.52656 -123.02548 114 ft 5 kts 266°
2026-04-26 00:34 48.52610 -123.02595 113 ft 10 kts 193°
2026-04-26 00:34 48.52578 -123.02648 114 ft 9 kts 179°
2026-04-26 00:35 48.52562 -123.02628 113 ft 0 kts 88°
2026-04-26 00:35 48.52562 -123.02613 114 ft 1 kts 91°
2026-04-26 00:35 48.52562 -123.02611 114 ft 0 kts 91°